Location: Bucquoy
(50.1391°N, 2.7097°E)
Time: 02:16:05
(UTC+00:00)

CZ-4C R/B - Pass Details

Date: 06 May 2021
Orbit: 463 x 634 km, 98.0° (Epoch: 24 June)

Event Time Altitude Azimuth Distance (km) Brightness Sun altitude
Exits shadow 02:46:18 - 181° (S) 2,055 5.8 -12.4°
Reaches altitude 10° 02:46:25 10° 181° (S) 2,008 5.7 -12.4°
Maximum altitude 02:50:43 54° 259° (W) 764 3.7 -11.9°
Drops below altitude 10° 02:54:56 10° 337° (NNW) 1,968 6.4 -11.4°
Sets 02:57:08 0° 343° (NNW) 2,853 7.3 -11.2°
